| time (UTC) | temp C | wind direction | speed KPH | gust KPH | rain 1hr cm | rain 24hr cm | rain mn cm | humidity % | barometer mb |
| 20260506014039 | 21 | 126 | 3.2 | 12.9 | 0.00 | 0.00 | 0.00 | 58 | 1010.4 |
| 20260506013518 | 21 | 91 | 3.2 | 9.7 | 0.00 | 0.00 | 0.00 | 58 | 1010.4 |
| 20260506013039 | 22 | 32 | 1.6 | 8.0 | 0.00 | 0.00 | 0.00 | 57 | 1010.4 |
| 20260506012519 | 22 | 88 | 6.4 | 17.7 | 0.00 | 0.00 | 0.00 | 56 | 1010.4 |
| 20260506012019 | 22 | 94 | 3.2 | 9.7 | 0.00 | 0.00 | 0.00 | 54 | 1010.3 |
| 20260506011519 | 22 | 103 | 3.2 | 9.7 | 0.00 | 0.00 | 0.00 | 53 | 1010.2 |
| 20260506011019 | 22 | 114 | 4.8 | 14.5 | 0.00 | 0.00 | 0.00 | 52 | 1010.1 |
| 20260506010519 | 22 | 28 | 1.6 | 11.3 | 0.00 | 0.00 | 0.00 | 50 | 1010.0 |
| 20260506010019 | 23 | 85 | 3.2 | 11.3 | 0.00 | 0.00 | 0.00 | 49 | 1010.0 |
| 20260506005539 | 23 | 118 | 4.8 | 14.5 | 0.00 | 0.00 | 0.00 | 48 | 1009.9 |
| 20260506005039 | 23 | 71 | 4.8 | 14.5 | 0.00 | 0.00 | 0.00 | 48 | 1009.8 |
| 20260506004519 | 23 | 68 | 3.2 | 11.3 | 0.00 | 0.00 | 0.00 | 47 | 1009.7 |
| 20260506004040 | 23 | 130 | 3.2 | 12.9 | 0.00 | 0.00 | 0.00 | 47 | 1009.7 |
| 20260506003540 | 23 | 23 | 1.6 | 8.0 | 0.00 | 0.00 | 0.00 | 47 | 1009.6 |
| 20260506003017 | 23 | 36 | 1.6 | 8.0 | 0.00 | 0.00 | 0.00 | 46 | 1009.5 |
| 20260506002517 | 23 | 105 | 4.8 | 14.5 | 0.00 | 0.00 | 0.00 | 46 | 1009.5 |
| 20260506002017 | 23 | 61 | 3.2 | 9.7 | 0.00 | 0.00 | 0.00 | 46 | 1009.5 |
| 20260506001520 | 23 | 340 | 3.2 | 11.3 | 0.00 | 0.00 | 0.00 | 46 | 1009.4 |
| 20260506001100 | 23 | 77 | 3.2 | 8.0 | 0.00 | 0.00 | 0.00 | 45 | 1009.4 |
| 20260506000600 | 24 | 354 | 3.2 | 8.0 | 0.00 | 0.00 | 0.00 | 45 | 1009.3 |
| 20260506000020 | 24 | 57 | 3.2 | 9.7 | 0.00 | 0.00 | 0.00 | 45 | 1009.3 |
| 20260505235520 | 24 | 58 | 3.2 | 12.9 | 0.00 | 0.00 | 0.00 | 44 | 1009.3 |
| 20260505235017 | 24 | 352 | 3.2 | 14.5 | 0.00 | 0.00 | 0.00 | 44 | 1009.3 |
| 20260505234517 | 25 | 23 | 3.2 | 8.0 | 0.00 | 0.00 | 0.00 | 44 | 1009.3 |
| 20260505234017 | 25 | 36 | 4.8 | 19.3 | 0.00 | 0.00 | 0.00 | 43 | 1009.2 |
| 20260505233518 | 25 | 33 | 3.2 | 9.7 | 0.00 | 0.00 | 0.00 | 44 | 1009.2 |
| 20260505233018 | 25 | 38 | 3.2 | 12.9 | 0.00 | 0.00 | 0.00 | 44 | 1009.1 |
| 20260505232518 | 25 | 78 | 3.2 | 11.3 | 0.00 | 0.00 | 0.00 | 43 | 1009.0 |
| 20260505232018 | 25 | 83 | 4.8 | 12.9 | 0.00 | 0.00 | 0.00 | 42 | 1009.0 |
| 20260505231521 | 25 | 61 | 3.2 | 9.7 | 0.00 | 0.00 | 0.00 | 41 | 1009.0 |
| 20260505231021 | 25 | 37 | 1.6 | 8.0 | 0.00 | 0.00 | 0.00 | 40 | 1008.9 |
| 20260505230601 | 26 | 61 | 4.8 | 12.9 | 0.00 | 0.00 | 0.00 | 39 | 1008.8 |
| 20260505230018 | 26 | 5 | 3.2 | 11.3 | 0.00 | 0.00 | 0.00 | 38 | 1008.8 |
| 20260505225518 | 26 | 57 | 4.8 | 12.9 | 0.00 | 0.00 | 0.00 | 37 | 1008.8 |
| 20260505225019 | 26 | 59 | 4.8 | 14.5 | 0.00 | 0.00 | 0.00 | 37 | 1008.8 |
| 20260505224519 | 26 | 105 | 4.8 | 14.5 | 0.00 | 0.00 | 0.00 | 37 | 1008.7 |
| 20260505224019 | 26 | 71 | 3.2 | 11.3 | 0.00 | 0.00 | 0.00 | 37 | 1008.7 |
| 20260505223519 | 26 | 8 | 4.8 | 9.7 | 0.00 | 0.00 | 0.00 | 37 | 1008.7 |
| 20260505223019 | 26 | 64 | 3.2 | 11.3 | 0.00 | 0.00 | 0.00 | 36 | 1008.7 |
| 20260505222519 | 26 | 39 | 6.4 | 16.1 | 0.00 | 0.03 | 0.00 | 36 | 1008.6 |
| 20260505222019 | 26 | 27 | 4.8 | 12.9 | 0.00 | 0.03 | 0.00 | 36 | 1008.7 |
| 20260505221539 | 26 | 26 | 4.8 | 11.3 | 0.00 | 0.03 | 0.00 | 36 | 1008.8 |
| 20260505221019 | 26 | 335 | 4.8 | 11.3 | 0.00 | 0.03 | 0.00 | 36 | 1008.7 |
| 20260505220519 | 26 | 300 | 4.8 | 14.5 | 0.00 | 0.03 | 0.00 | 35 | 1008.7 |
| 20260505220019 | 27 | 109 | 6.4 | 16.1 | 0.00 | 0.03 | 0.00 | 35 | 1008.7 |
| 20260505215519 | 27 | 114 | 4.8 | 12.9 | 0.00 | 0.03 | 0.00 | 34 | 1008.5 |
| 20260505215020 | 27 | 355 | 4.8 | 12.9 | 0.00 | 0.03 | 0.00 | 34 | 1008.6 |
| 20260505214519 | 27 | 3 | 4.8 | 11.3 | 0.00 | 0.03 | 0.00 | 34 | 1008.5 |
| 20260505214020 | 27 | 12 | 4.8 | 14.5 | 0.00 | 0.03 | 0.00 | 33 | 1008.4 |
| 20260505213519 | 27 | 36 | 4.8 | 11.3 | 0.00 | 0.03 | 0.00 | 33 | 1008.3 |
| 20260505213017 | 27 | 16 | 6.4 | 14.5 | 0.00 | 0.03 | 0.00 | 32 | 1008.4 |
| 20260505212537 | 27 | 100 | 6.4 | 19.3 | 0.00 | 0.03 | 0.00 | 32 | 1008.4 |
| 20260505212017 | 27 | 49 | 6.4 | 16.1 | 0.00 | 0.03 | 0.00 | 32 | 1008.3 |
| 20260505211520 | 27 | 4 | 4.8 | 12.9 | 0.00 | 0.03 | 0.00 | 31 | 1008.4 |
| 20260505211020 | 27 | 100 | 6.4 | 14.5 | 0.00 | 0.03 | 0.00 | 32 | 1008.4 |
| 20260505210520 | 27 | 11 | 4.8 | 16.1 | 0.00 | 0.03 | 0.00 | 32 | 1008.3 |
| 20260505210020 | 27 | 124 | 6.4 | 12.9 | 0.00 | 0.03 | 0.00 | 32 | 1008.2 |
| 20260505205540 | 28 | 317 | 6.4 | 14.5 | 0.00 | 0.03 | 0.00 | 32 | 1008.3 |
| 20260505205018 | 28 | 100 | 4.8 | 17.7 | 0.00 | 0.03 | 0.00 | 32 | 1008.2 |
| 20260505204518 | 28 | 271 | 6.4 | 16.1 | 0.00 | 0.03 | 0.00 | 33 | 1008.3 |
| 20260505204017 | 28 | 335 | 4.8 | 12.9 | 0.00 | 0.03 | 0.00 | 33 | 1008.2 |
| 20260505203518 | 28 | 349 | 3.2 | 9.7 | 0.00 | 0.03 | 0.00 | 34 | 1008.2 |
| 20260505203018 | 28 | 70 | 4.8 | 12.9 | 0.00 | 0.03 | 0.00 | 35 | 1008.2 |
| 20260505202518 | 28 | 9 | 3.2 | 12.9 | 0.00 | 0.03 | 0.00 | 35 | 1008.2 |
| 20260505202038 | 27 | 11 | 4.8 | 16.1 | 0.00 | 0.03 | 0.00 | 34 | 1008.3 |
| 20260505201521 | 27 | 45 | 4.8 | 12.9 | 0.00 | 0.03 | 0.00 | 34 | 1008.4 |
| 20260505201018 | 28 | 103 | 6.4 | 14.5 | 0.00 | 0.03 | 0.00 | 34 | 1008.4 |
| 20260505200518 | 28 | 29 | 4.8 | 19.3 | 0.00 | 0.03 | 0.00 | 34 | 1008.4 |
| 20260505200019 | 28 | 16 | 4.8 | 16.1 | 0.00 | 0.03 | 0.00 | 35 | 1008.5 |
| 20260505195519 | 27 | 344 | 3.2 | 9.7 | 0.00 | 0.03 | 0.00 | 38 | 1008.4 |
| 20260505195018 | 27 | 77 | 4.8 | 14.5 | 0.00 | 0.03 | 0.00 | 37 | 1008.5 |
| 20260505194639 | 27 | 96 | 4.8 | 17.7 | 0.00 | 0.03 | 0.00 | 37 | 1008.6 |
| 20260505194019 | 27 | 19 | 6.4 | 14.5 | 0.00 | 0.03 | 0.00 | 38 | 1008.6 |
| 20260505193519 | 27 | 50 | 4.8 | 16.1 | 0.00 | 0.03 | 0.00 | 39 | 1008.6 |
| 20260505193019 | 27 | 169 | 4.8 | 14.5 | 0.00 | 0.03 | 0.00 | 39 | 1008.7 |
| 20260505192519 | 27 | 17 | 4.8 | 14.5 | 0.00 | 0.03 | 0.00 | 38 | 1008.8 |
| 20260505192019 | 27 | 3 | 4.8 | 11.3 | 0.00 | 0.03 | 0.00 | 38 | 1008.8 |
| 20260505191639 | 27 | 12 | 4.8 | 12.9 | 0.00 | 0.03 | 0.00 | 38 | 1008.9 |
| 20260505191019 | 27 | 81 | 4.8 | 19.3 | 0.00 | 0.03 | 0.00 | 39 | 1008.9 |
| 20260505190539 | 27 | 70 | 3.2 | 8.0 | 0.00 | 0.03 | 0.00 | 39 | 1008.9 |
| 20260505190019 | 27 | 43 | 6.4 | 14.5 | 0.00 | 0.03 | 0.00 | 39 | 1009.1 |
| 20260505185519 | 27 | 44 | 4.8 | 12.9 | 0.00 | 0.03 | 0.00 | 39 | 1009.1 |
| 20260505185019 | 27 | 341 | 4.8 | 14.5 | 0.00 | 0.03 | 0.00 | 39 | 1009.2 |
| 20260505184520 | 27 | 20 | 4.8 | 11.3 | 0.00 | 0.05 | 0.00 | 40 | 1009.3 |
| 20260505184020 | 27 | 35 | 6.4 | 19.3 | 0.00 | 0.05 | 0.00 | 40 | 1009.3 |
| 20260505183520 | 27 | 355 | 4.8 | 9.7 | 0.00 | 0.05 | 0.00 | 39 | 1009.5 |
| 20260505183037 | 27 | 37 | 6.4 | 16.1 | 0.00 | 0.05 | 0.00 | 40 | 1009.6 |
| 20260505182517 | 27 | 328 | 4.8 | 14.5 | 0.00 | 0.05 | 0.00 | 41 | 1009.5 |
| 20260505182037 | 27 | 35 | 4.8 | 16.1 | 0.00 | 0.05 | 0.00 | 41 | 1009.6 |
| 20260505181520 | 27 | 52 | 4.8 | 11.3 | 0.00 | 0.05 | 0.00 | 40 | 1009.6 |
| 20260505181041 | 27 | 80 | 4.8 | 14.5 | 0.00 | 0.05 | 0.00 | 42 | 1009.7 |
| 20260505180520 | 27 | 355 | 6.4 | 17.7 | 0.00 | 0.05 | 0.00 | 42 | 1009.7 |
| 20260505180020 | 27 | 16 | 4.8 | 16.1 | 0.00 | 0.05 | 0.00 | 41 | 1009.7 |
| 20260505175518 | 27 | 283 | 4.8 | 14.5 | 0.00 | 0.05 | 0.00 | 42 | 1009.9 |
| 20260505175038 | 27 | 85 | 3.2 | 11.3 | 0.00 | 0.05 | 0.00 | 42 | 1009.8 |
| 20260505174518 | 27 | 13 | 4.8 | 11.3 | 0.00 | 0.05 | 0.00 | 43 | 1009.8 |
| 20260505174018 | 26 | 329 | 4.8 | 11.3 | 0.00 | 0.05 | 0.00 | 43 | 1009.9 |
| 20260505173518 | 27 | 52 | 4.8 | 20.9 | 0.00 | 0.05 | 0.00 | 43 | 1010.0 |
| 20260505173018 | 27 | 95 | 4.8 | 14.5 | 0.00 | 0.05 | 0.00 | 43 | 1010.0 |
| 20260505172518 | 27 | 323 | 4.8 | 16.1 | 0.00 | 0.05 | 0.00 | 45 | 1010.0 |
| 20260505172018 | 27 | 319 | 4.8 | 14.5 | 0.00 | 0.05 | 0.00 | 44 | 1010.1 |
| 20260505171521 | 27 | 34 | 4.8 | 12.9 | 0.00 | 0.05 | 0.00 | 45 | 1010.1 |
| 20260505171018 | 26 | 83 | 3.2 | 9.7 | 0.00 | 0.05 | 0.00 | 46 | 1010.2 |
| 20260505170518 | 26 | 115 | 6.4 | 16.1 | 0.00 | 0.05 | 0.00 | 46 | 1010.2 |
| 20260505170039 | 26 | 122 | 3.2 | 12.9 | 0.00 | 0.05 | 0.00 | 46 | 1010.2 |
| 20260505165518 | 26 | 317 | 3.2 | 11.3 | 0.00 | 0.05 | 0.00 | 46 | 1010.3 |
| 20260505165018 | 26 | 114 | 4.8 | 11.3 | 0.00 | 0.05 | 0.00 | 47 | 1010.3 |
| 20260505164519 | 26 | 37 | 4.8 | 11.3 | 0.00 | 0.05 | 0.00 | 47 | 1010.2 |
| 20260505164059 | 26 | 79 | 4.8 | 19.3 | 0.00 | 0.05 | 0.00 | 47 | 1010.3 |
| 20260505163519 | 26 | 135 | 4.8 | 12.9 | 0.00 | 0.05 | 0.00 | 48 | 1010.3 |
| 20260505163019 | 26 | 123 | 4.8 | 12.9 | 0.00 | 0.05 | 0.00 | 48 | 1010.3 |
| 20260505162519 | 26 | 96 | 4.8 | 9.7 | 0.00 | 0.05 | 0.00 | 46 | 1010.4 |
| 20260505162040 | 26 | 91 | 3.2 | 8.0 | 0.00 | 0.05 | 0.00 | 46 | 1010.5 |
| 20260505161519 | 26 | 132 | 3.2 | 11.3 | 0.00 | 0.05 | 0.00 | 46 | 1010.5 |
| 20260505161019 | 26 | 34 | 3.2 | 8.0 | 0.00 | 0.05 | 0.00 | 45 | 1010.6 |
| 20260505160520 | 26 | 348 | 4.8 | 11.3 | 0.00 | 0.05 | 0.00 | 44 | 1010.6 |
| 20260505153017 | 25 | 95 | 3.2 | 8.0 | 0.00 | 0.05 | 0.00 | 47 | 1010.9 |
| 20260505152520 | 25 | 120 | 4.8 | 14.5 | 0.00 | 0.05 | 0.00 | 46 | 1011.0 |
| 20260505152020 | 25 | 45 | 4.8 | 14.5 | 0.00 | 0.05 | 0.00 | 46 | 1011.1 |
| 20260505151520 | 25 | 60 | 3.2 | 8.0 | 0.00 | 0.05 | 0.00 | 48 | 1011.0 |
| 20260505151020 | 24 | 46 | 4.8 | 11.3 | 0.00 | 0.05 | 0.00 | 48 | 1011.0 |
| 20260505150538 | 24 | 91 | 3.2 | 12.9 | 0.00 | 0.05 | 0.00 | 48 | 1010.9 |
| 20260505140519 | 22 | 340 | 4.8 | 14.5 | 0.00 | 0.05 | 0.00 | 53 | 1011.6 |
| 20260505125017 | 19 | 117 | 3.2 | 14.5 | 0.00 | 0.05 | 0.00 | 63 | 1011.5 |
| 20260505124517 | 18 | 349 | 3.2 | 6.4 | 0.00 | 0.05 | 0.00 | 63 | 1011.5 |
| 20260505124017 | 18 | 68 | 3.2 | 12.9 | 0.00 | 0.05 | 0.00 | 65 | 1011.5 |
| 20260505123520 | 18 | 292 | 1.6 | 6.4 | 0.00 | 0.05 | 0.00 | 67 | 1011.4 |
| 20260505123020 | 17 | 17 | 3.2 | 9.7 | 0.00 | 0.05 | 0.00 | 67 | 1011.5 |
| 20260505122520 | 17 | 114 | 3.2 | 8.0 | 0.00 | 0.05 | 0.00 | 67 | 1011.5 |
| 20260505122020 | 17 | 151 | 3.2 | 6.4 | 0.00 | 0.05 | 0.00 | 68 | 1011.5 |
| 20260505121540 | 17 | 93 | 3.2 | 6.4 | 0.00 | 0.05 | 0.00 | 68 | 1011.6 |
| 20260505121038 | 17 | 90 | 1.6 | 11.3 | 0.00 | 0.05 | 0.00 | 69 | 1011.7 |
| 20260505120518 | 16 | 61 | 1.6 | 6.4 | 0.00 | 0.05 | 0.00 | 70 | 1011.6 |
| 20260505120018 | 16 | 111 | 3.2 | 8.0 | 0.00 | 0.05 | 0.00 | 74 | 1011.6 |
| 20260505115558 | 15 | 120 | 1.6 | 4.8 | 0.00 | 0.05 | 0.00 | 79 | 1011.7 |
| 20260505115018 | 13 | 92 | 1.6 | 4.8 | 0.00 | 0.05 | 0.00 | 82 | 1011.7 |
| 20260505114518 | 13 | 105 | 1.6 | 3.2 | 0.00 | 0.05 | 0.00 | 86 | 1011.6 |
| 20260505114018 | 12 | 142 | 1.6 | 4.8 | 0.00 | 0.05 | 0.00 | 88 | 1011.4 |
| 20260505113521 | 12 | 108 | 1.6 | 3.2 | 0.00 | 0.05 | 0.00 | 90 | 1011.3 |
| 20260505113018 | 12 | 114 | 0.0 | 3.2 | 0.00 | 0.05 | 0.00 | 91 | 1011.3 |
| 20260505112518 | 11 | 122 | 1.6 | 3.2 | 0.00 | 0.05 | 0.00 | 91 | 1011.2 |
| 20260505112018 | 11 | 120 | 1.6 | 4.8 | 0.00 | 0.05 | 0.00 | 92 | 1011.2 |
| 20260505111518 | 11 | 117 | 0.0 | 1.6 | 0.00 | 0.05 | 0.00 | 92 | 1011.2 |
| 20260505111018 | 11 | 129 | 1.6 | 3.2 | 0.00 | 0.05 | 0.00 | 92 | 1011.2 |
| 20260505110539 | 11 | 115 | 1.6 | 3.2 | 0.00 | 0.05 | 0.00 | 91 | 1011.2 |
| 20260505102019 | 12 | 132 | 3.2 | 4.8 | 0.00 | 0.05 | 0.00 | 89 | 1011.2 |
| 20260505101519 | 12 | 122 | 1.6 | 3.2 | 0.00 | 0.05 | 0.00 | 88 | 1011.3 |
| 20260505101020 | 12 | 128 | 1.6 | 3.2 | 0.00 | 0.05 | 0.00 | 88 | 1011.2 |
| 20260505100520 | 12 | 125 | 0.0 | 1.6 | 0.00 | 0.05 | 0.00 | 87 | 1011.2 |
| 20260505100040 | 12 | 118 | 1.6 | 3.2 | 0.00 | 0.05 | 0.00 | 86 | 1011.1 |
| 20260505095519 | 12 | 131 | 3.2 | 4.8 | 0.00 | 0.05 | 0.00 | 86 | 1011.1 |
| 20260505095037 | 12 | 151 | 1.6 | 4.8 | 0.00 | 0.05 | 0.00 | 84 | 1011.1 |
| 20260505094517 | 12 | 125 | 3.2 | 4.8 | 0.00 | 0.05 | 0.00 | 85 | 1011.1 |
| 20260505094017 | 12 | 140 | 1.6 | 4.8 | 0.00 | 0.05 | 0.00 | 84 | 1011.0 |
| 20260505093520 | 13 | 140 | 1.6 | 4.8 | 0.00 | 0.05 | 0.00 | 82 | 1011.0 |
| 20260505093020 | 12 | 125 | 1.6 | 4.8 | 0.00 | 0.05 | 0.00 | 83 | 1010.9 |
| 20260505092540 | 12 | 132 | 3.2 | 4.8 | 0.00 | 0.05 | 0.00 | 83 | 1010.7 |
| 20260505092020 | 12 | 144 | 1.6 | 3.2 | 0.00 | 0.05 | 0.00 | 83 | 1010.6 |
| 20260505091520 | 12 | 123 | 3.2 | 6.4 | 0.00 | 0.05 | 0.00 | 83 | 1010.6 |
| 20260505091038 | 13 | 125 | 3.2 | 4.8 | 0.00 | 0.05 | 0.00 | 83 | 1010.6 |
| 20260505090538 | 13 | 142 | 1.6 | 3.2 | 0.00 | 0.05 | 0.00 | 83 | 1010.6 |
| 20260505090018 | 13 | 138 | 1.6 | 4.8 | 0.00 | 0.05 | 0.00 | 81 | 1010.5 |
| 20260505085518 | 13 | 143 | 1.6 | 3.2 | 0.00 | 0.05 | 0.00 | 79 | 1010.6 |
| 20260505085017 | 14 | 106 | 3.2 | 6.4 | 0.00 | 0.05 | 0.00 | 78 | 1010.6 |
| 20260505084539 | 14 | 125 | 1.6 | 4.8 | 0.00 | 0.05 | 0.00 | 78 | 1010.6 |
| 20260505084018 | 14 | 120 | 1.6 | 4.8 | 0.00 | 0.05 | 0.00 | 77 | 1010.6 |
| 20260505083521 | 14 | 135 | 1.6 | 6.4 | 0.00 | 0.05 | 0.00 | 77 | 1010.6 |
| 20260505083018 | 14 | 129 | 1.6 | 8.0 | 0.00 | 0.05 | 0.00 | 78 | 1010.6 |
| 20260505082521 | 14 | 117 | 1.6 | 4.8 | 0.00 | 0.05 | 0.00 | 78 | 1010.7 |
| 20260505082018 | 13 | 119 | 1.6 | 4.8 | 0.00 | 0.05 | 0.00 | 78 | 1010.6 |
| 20260505081559 | 13 | 149 | 3.2 | 6.4 | 0.00 | 0.05 | 0.00 | 78 | 1010.6 |
| 20260505081018 | 13 | 127 | 3.2 | 8.0 | 0.00 | 0.05 | 0.00 | 78 | 1010.6 |
| 20260505080519 | 13 | 120 | 3.2 | 8.0 | 0.00 | 0.05 | 0.00 | 80 | 1010.7 |
| 20260505080019 | 13 | 145 | 3.2 | 6.4 | 0.00 | 0.05 | 0.00 | 80 | 1010.7 |
| 20260505075519 | 13 | 145 | 3.2 | 4.8 | 0.00 | 0.05 | 0.00 | 81 | 1010.8 |
| 20260505075019 | 12 | 115 | 1.6 | 4.8 | 0.00 | 0.05 | 0.00 | 81 | 1010.8 |
| 20260505074519 | 12 | 131 | 1.6 | 6.4 | 0.00 | 0.05 | 0.00 | 81 | 1010.6 |
| 20260505074019 | 12 | 129 | 3.2 | 6.4 | 0.00 | 0.05 | 0.00 | 84 | 1010.5 |
| 20260505073519 | 12 | 138 | 1.6 | 4.8 | 0.00 | 0.05 | 0.00 | 85 | 1010.6 |
| 20260505073019 | 12 | 141 | 1.6 | 4.8 | 0.00 | 0.05 | 0.00 | 85 | 1010.5 |
| 20260505072519 | 12 | 149 | 1.6 | 4.8 | 0.00 | 0.05 | 0.00 | 84 | 1010.6 |
| 20260505072019 | 12 | 136 | 3.2 | 4.8 | 0.00 | 0.05 | 0.00 | 85 | 1010.5 |
| 20260505071520 | 12 | 150 | 3.2 | 6.4 | 0.00 | 0.05 | 0.00 | 85 | 1010.5 |
| 20260505071019 | 11 | 133 | 1.6 | 4.8 | 0.00 | 0.05 | 0.00 | 86 | 1010.5 |
| 20260505070539 | 11 | 134 | 3.2 | 6.4 | 0.00 | 0.05 | 0.00 | 86 | 1010.5 |
| 20260505070020 | 11 | 142 | 1.6 | 3.2 | 0.00 | 0.05 | 0.00 | 86 | 1010.5 |
| 20260505065517 | 11 | 134 | 3.2 | 4.8 | 0.00 | 0.05 | 0.00 | 86 | 1010.4 |
| 20260505065037 | 11 | 138 | 1.6 | 4.8 | 0.00 | 0.05 | 0.00 | 85 | 1010.4 |
| 20260505064517 | 11 | 149 | 3.2 | 4.8 | 0.00 | 0.05 | 0.00 | 86 | 1010.4 |
| 20260505064017 | 11 | 133 | 3.2 | 4.8 | 0.00 | 0.05 | 0.00 | 87 | 1010.3 |
| 20260505063600 | 11 | 139 | 3.2 | 4.8 | 0.00 | 0.05 | 0.00 | 87 | 1010.4 |
| 20260505063021 | 11 | 147 | 1.6 | 4.8 | 0.00 | 0.05 | 0.00 | 87 | 1010.4 |
| 20260505062520 | 11 | 131 | 3.2 | 4.8 | 0.00 | 0.05 | 0.00 | 87 | 1010.4 |
| 20260505062017 | 11 | 139 | 1.6 | 4.8 | 0.00 | 0.05 | 0.00 | 87 | 1010.4 |
| 20260505061518 | 11 | 139 | 1.6 | 4.8 | 0.00 | 0.05 | 0.00 | 87 | 1010.4 |
| 20260505061058 | 11 | 132 | 3.2 | 4.8 | 0.00 | 0.05 | 0.00 | 87 | 1010.4 |
| 20260505060517 | 11 | 131 | 3.2 | 4.8 | 0.00 | 0.05 | 0.00 | 87 | 1010.4 |
| 20260505060058 | 11 | 136 | 1.6 | 3.2 | 0.00 | 0.05 | 0.00 | 87 | 1010.4 |
| 20260505055538 | 11 | 130 | 3.2 | 4.8 | 0.00 | 0.05 | 0.00 | 87 | 1010.4 |
| 20260505055018 | 11 | 130 | 3.2 | 4.8 | 0.00 | 0.05 | 0.00 | 87 | 1010.5 |
| 20260505054521 | 11 | 138 | 3.2 | 4.8 | 0.00 | 0.05 | 0.00 | 86 | 1010.6 |
| 20260505054018 | 11 | 129 | 3.2 | 4.8 | 0.00 | 0.05 | 0.00 | 86 | 1010.6 |
| 20260505053539 | 11 | 132 | 3.2 | 4.8 | 0.00 | 0.05 | 0.00 | 86 | 1010.6 |
| 20260505053018 | 11 | 132 | 3.2 | 3.2 | 0.00 | 0.05 | 0.00 | 85 | 1010.7 |
| 20260505052518 | 11 | 129 | 3.2 | 4.8 | 0.00 | 0.05 | 0.00 | 85 | 1010.7 |
| 20260505052019 | 11 | 126 | 3.2 | 4.8 | 0.00 | 0.05 | 0.00 | 85 | 1010.7 |
| 20260505051519 | 11 | 129 | 3.2 | 4.8 | 0.00 | 0.05 | 0.00 | 84 | 1010.7 |
| 20260505051018 | 11 | 128 | 1.6 | 3.2 | 0.00 | 0.05 | 0.00 | 83 | 1010.8 |
| 20260505050518 | 12 | 133 | 1.6 | 3.2 | 0.00 | 0.05 | 0.00 | 82 | 1010.7 |
| 20260505041519 | 13 | 132 | 0.0 | 3.2 | 0.00 | 0.05 | 0.00 | 75 | 1010.4 |
| 20260505041017 | 13 | 135 | 1.6 | 3.2 | 0.00 | 0.05 | 0.00 | 74 | 1010.4 |
| 20260505040519 | 13 | 100 | 1.6 | 6.4 | 0.00 | 0.05 | 0.00 | 72 | 1010.3 |
| 20260505040020 | 14 | 98 | 1.6 | 3.2 | 0.00 | 0.05 | 0.00 | 71 | 1010.3 |
| 20260505035520 | 14 | 93 | 1.6 | 3.2 | 0.00 | 0.05 | 0.05 | 70 | 1010.3 |
| 20260505035020 | 14 | 98 | 1.6 | 4.8 | 0.00 | 0.05 | 0.05 | 69 | 1010.4 |
| 20260505034520 | 15 | 25 | 1.6 | 4.8 | 0.00 | 0.05 | 0.05 | 68 | 1010.4 |
| 20260505034017 | 15 | 91 | 0.0 | 4.8 | 0.00 | 0.05 | 0.05 | 67 | 1010.4 |
| 20260505033517 | 15 | 80 | 1.6 | 4.8 | 0.00 | 0.05 | 0.05 | 66 | 1010.4 |
| 20260505033017 | 15 | 106 | 1.6 | 4.8 | 0.00 | 0.05 | 0.05 | 65 | 1010.4 |
| 20260505032517 | 15 | 99 | 1.6 | 4.8 | 0.00 | 0.05 | 0.05 | 65 | 1010.4 |
| 20260505032017 | 15 | 104 | 1.6 | 6.4 | 0.00 | 0.05 | 0.05 | 63 | 1010.5 |
| 20260505031521 | 15 | 179 | 1.6 | 6.4 | 0.00 | 0.05 | 0.05 | 64 | 1010.5 |
| 20260505031020 | 15 | 91 | 1.6 | 4.8 | 0.00 | 0.05 | 0.05 | 64 | 1010.5 |
| 20260505030520 | 15 | 172 | 1.6 | 3.2 | 0.00 | 0.05 | 0.05 | 63 | 1010.6 |
| 20260505030018 | 15 | 110 | 1.6 | 6.4 | 0.00 | 0.05 | 0.05 | 62 | 1010.6 |
| 20260505025520 | 16 | 136 | 1.6 | 6.4 | 0.00 | 0.05 | 0.05 | 61 | 1010.7 |
| 20260505025018 | 16 | 105 | 1.6 | 4.8 | 0.00 | 0.05 | 0.05 | 60 | 1010.7 |
| 20260505024518 | 16 | 107 | 1.6 | 4.8 | 0.00 | 0.05 | 0.05 | 59 | 1010.8 |
| 20260505024018 | 16 | 109 | 1.6 | 4.8 | 0.00 | 0.05 | 0.05 | 58 | 1010.8 |
| 20260505023518 | 16 | 112 | 3.2 | 9.7 | 0.00 | 0.05 | 0.05 | 57 | 1010.7 |
| 20260505023018 | 16 | 113 | 3.2 | 6.4 | 0.00 | 0.05 | 0.05 | 58 | 1010.8 |
| 20260505022518 | 16 | 126 | 1.6 | 6.4 | 0.00 | 0.05 | 0.05 | 57 | 1010.7 |
| 20260505022018 | 16 | 129 | 1.6 | 6.4 | 0.00 | 0.05 | 0.05 | 56 | 1010.7 |
| 20260505021518 | 16 | 110 | 1.6 | 6.4 | 0.00 | 0.05 | 0.05 | 55 | 1010.7 |
| 20260505021019 | 16 | 120 | 1.6 | 4.8 | 0.00 | 0.05 | 0.05 | 56 | 1010.8 |
| 20260505020539 | 16 | 115 | 1.6 | 4.8 | 0.00 | 0.05 | 0.05 | 55 | 1010.9 |
| 20260505020019 | 16 | 130 | 1.6 | 4.8 | 0.00 | 0.05 | 0.05 | 56 | 1010.9 |
| 20260505015519 | 16 | 127 | 1.6 | 4.8 | 0.00 | 0.05 | 0.05 | 56 | 1010.8 |
| 20260505015019 | 15 | 115 | 1.6 | 4.8 | 0.00 | 0.05 | 0.05 | 55 | 1010.8 |
| 20260505014519 | 15 | 123 | 3.2 | 6.4 | 0.00 | 0.05 | 0.05 | 59 | 1010.7 |